Погода в Малом Барханчаке

Россия / Ставропольский край     45°35′14″N   43°04′28″E
темп.,
°C
ветер,
м/с
пор.,
м/с
влажн.,
%
обл.,
%
осадки,
мм/ч
давл.,
гПа
погр.,
м
19 апреля, пн
пн1900:00+11юв3791100 0.0 1016153
03:00+11ю3493100 0.3 101578
06:00+12зюз3492100 0.4 101674
09:00+14зюз3691100 1.6 1016291
12:00+18ююз237392 0.3 1015854
15:00+16юз2280100 1.2 101437
18:00+14св4697100 1.1 1014199
21:00+13вюв3599100 3.1 1015139
20 апреля, вт
вт2000:00+13ююв359697 0.4 1013113
03:00+13юв4989100 1.2 1012229
06:00+12юв61377100 0.0 1010381
09:00+14юв61371100 0.0 1008475
12:00+19юв81161100 0.0 1007592
15:00+18ююв4868100 0.4 1006353
18:00+16зсз81187100 0.8 1008448
21:00+14зсз41084100 2.3 1011488
21 апреля, ср
ср2100:00+13з3989100 0.6 1013560
03:00+11з4983100 0.7 1015513
06:00+9зсз41190100 0.6 1017687
09:00+9з3686100 1.5 1019581
12:00+11зсз1475100 0.6 1019556
15:00+11ююз2390100 1.1 1020161
18:00+11ююз3385100 0.1 1021210
21:00+10ююз3391100 0.3 102280
22 апреля, чт
чт2200:00+9ююз229395 0.3 102239
03:00+9зюз1191100 0.3 102211
06:00+10з1189100 0.0 102319
09:00+11юз1181100 0.1 1023252
12:00+13ююз3375100 0.7 1024497
15:00+15зюз1163100 2.1 1023845
18:00+14з2277100 1.3 102378
21:00+11зюз2282100 1.6 102319
23 апреля, пт
пт2300:00+10юз228671 0.0 102317
03:00+9ссз118686 0.4 102210
06:00+9зсз119024 0.8 102313
09:00+14ю10685 1.1 1022577
12:00+17зсз11545 1.4 10211287
15:00+18сз125150 3.3 10201425
18:00+16сз2365100 0.4 102069
21:00+12з22760 0.5 102111